English version Home page |
Updated on November 11, 2005 |
プロフィール
|
軌道要素Epoch 2002 Jan. 6.0 TT = JDT 2452280.5 T 2001 Dec. 23.91842 TT MPC q 1.0510658 (2000.0) P Q n 0.01297691 Peri. 142.08594 +0.55929342 -0.07291528 a 17.9344677 Node 113.35583 -0.78670006 -0.36071242 e 0.9413941 Incl. 115.91310 +0.26133100 -0.92982252 P 75.95
|
星図
|
光度変化m1 = 10.2 + 5 logΔ + 15 log r
|
軌道要素はM.P.E.C. 2002-S58に掲載されたものです。
|